Location: Newark
(34.9500°N, 139.9667°E)
Time: 11:28:13
(UTC+00:00)

Altair - Pass Details

Date: 15 December 2019
Orbit: 1502 x 1682 km, 47.2° (Epoch: 25 January)

Event Time Altitude Azimuth Distance (km) Brightness Sun altitude
Rises 08:49:43 0° 212° (SSW) 4,870 10.9 -15.9°
Reaches altitude 10° 08:53:00 10° 207° (SSW) 3,864 10.2 -16.6°
Maximum altitude 09:02:24 52° 135° (SE) 1,910 7.8 -18.4°
Enters shadow 09:07:35 27° 74° (ENE) 2,647 8.1 -19.4°
